Flag for Switzerland Weather past 2 weeks in Altstätten, St. Gallen, Switzerland

Now
70 °F

Passing clouds.


Feels Like: 70 °F
Forecast: 64 / 85 °F
Wind: 5 mph from Northwest

Location: Saint Gallen-Altenrhein

Current Time: Aug 29, 2015 at 10:16:19 AM

Latest Report: Aug 29, 2015 at 9:20 AM


Visibility: N/A

Pressure: 30.21 "Hg

Humidity: 83%

Dew point: 64 °F

Location of AltstättenLocation

Historic Weather in Altstätten — Graph

°F

Altstätten temperature yesterday

Maximum temperature yesterday: 84 °F (at 4:50 PM)
Minimum temperature yesterday: 61 °F (at 3:50 AM)
Average temperature yesterday: 73 °F

Past Weeks' High & Low Weather Summary

 TemperatureHumidityPressure
High84 °F (Aug 28, 4:50 PM)100% (Aug 16, 3:20 AM)30.27 "Hg (Aug 16, 3:20 AM)
Low52 °F (Aug 22, 4:20 AM)37% (Aug 28, 3:20 PM)29.71 "Hg (Aug 24, 7:50 AM)
Average64 °F78%30.02 "Hg
* Reported Aug 14 9:20 AM — Aug 29 9:20 AM, Altstätten, Weather by CustomWeather, © 2015

Note: Actual official high and low records may vary slightly from our data, if they occured in-between our weather recording intervals... More about our weather records

Advertising

Altstätten weather history for previous 24 hours

 ConditionsComfort  
Time TempWeatherWind HumidityBarometerVisibility
9:20 AM
Sat, Aug 29
70 °FPassing clouds.5 mph83%30.21 "HgN/A
8:50 AM68 °FSunny.3 mph83%30.21 "Hg10 mi
7:50 AM63 °FSunny.No wind94%30.21 "Hg10 mi
7:20 AM61 °FClear.No wind94%30.18 "Hg10 mi
6:50 AM61 °FClear.1 mph94%30.18 "Hg10 mi
6:20 AM61 °FClear.2 mph94%30.18 "Hg10 mi
5:50 AM61 °FClear.1 mph94%30.18 "Hg10 mi
5:20 AM61 °FClear.2 mph94%30.18 "Hg10 mi
4:50 AM63 °FClear.1 mph94%30.18 "Hg10 mi
4:20 AM63 °FClear.1 mph94%30.18 "Hg10 mi
3:50 AM63 °FClear.2 mph94%30.18 "Hg10 mi
3:20 AM63 °FClear.1 mph88%30.18 "Hg10 mi
2:50 AM64 °FClear.2 mph88%30.18 "Hg10 mi
2:20 AM64 °FClear.1 mph88%30.18 "Hg10 mi
1:50 AM70 °FClear.3 mph78%30.18 "Hg10 mi
1:20 AM72 °FClear.7 mph73%30.18 "Hg10 mi
12:50 AM66 °FClear.2 mph83%30.18 "Hg10 mi
12:20 AM68 °FClear.3 mph78%30.18 "Hg10 mi
11:50 PM
Fri, Aug 28
68 °FClear.2 mph83%30.18 "Hg10 mi
11:20 PM66 °FClear.2 mph83%30.15 "Hg10 mi
10:50 PM72 °FClear.7 mph78%30.15 "Hg10 mi
10:20 PM70 °FClear.1 mph69%30.15 "Hg10 mi
9:50 PM77 °FPassing clouds.5 mph47%30.12 "HgN/A
9:20 PM77 °FPassing clouds.5 mph51%30.12 "HgN/A
8:50 PM77 °FSunny.2 mph51%30.12 "Hg10 mi
8:20 PM77 °FSunny.3 mph54%30.12 "Hg10 mi
7:50 PM77 °FSunny.2 mph65%30.09 "Hg10 mi
7:20 PM79 °FSunny.2 mph65%30.09 "Hg10 mi
6:50 PM84 °FSunny.1 mph45%30.09 "Hg10 mi
6:20 PM82 °FSunny.2 mph48%30.09 "Hg10 mi
5:50 PM84 °FSunny.2 mph37%30.09 "Hg10 mi
5:20 PM84 °FSunny.3 mph43%30.09 "Hg10 mi
4:50 PM84 °FSunny.1 mph37%30.09 "Hg10 mi
4:20 PM82 °FSunny.3 mph40%30.09 "Hg10 mi
3:50 PM82 °FPassing clouds.5 mph37%30.09 "HgN/A
3:20 PM82 °FPassing clouds.5 mph37%30.09 "HgN/A
2:50 PM82 °FSunny.6 mph42%30.09 "Hg10 mi
2:20 PM82 °FSunny.5 mph55%30.12 "Hg10 mi
1:50 PM81 °FSunny.3 mph48%30.12 "Hg10 mi
1:20 PM81 °FSunny.5 mph51%30.12 "Hg10 mi
12:50 PM81 °FSunny.3 mph51%30.12 "Hg10 mi
12:20 PM79 °FSunny.3 mph58%30.09 "Hg10 mi
11:50 AM81 °FSunny.1 mph51%30.09 "Hg10 mi
11:20 AM79 °FSunny.6 mph48%30.09 "Hg10 mi
10:50 AM79 °FPassing clouds.5 mph54%30.09 "HgN/A
10:20 AM77 °FSunny.2 mph54%30.09 "Hg10 mi
Weather by CustomWeather, © 2015

See weather overviewHow to use our weather pages